| time (UTC) | temp F | wind direction | speed MPH | gust MPH | rain 1hr in | rain 24hr in | rain mn in | humidity % | barometer mb |
| 20260903193105 | 86 | 87 | 0.0 | 6.0 | 0.00 | 0.00 | 0.00 | 57 | 1022.8 |
| 20260903191601 | 87 | 192 | 1.0 | 7.0 | 0.00 | 0.00 | 0.00 | 57 | 1022.9 |
| 20260903190106 | 87 | 173 | 1.0 | 8.0 | 0.00 | 0.00 | 0.00 | 57 | 1022.9 |
| 20260903184600 | 87 | 50 | 1.0 | 5.0 | 0.00 | 0.00 | 0.00 | 57 | 1023.2 |
| 20260903183107 | 86 | 259 | 0.0 | 8.0 | 0.00 | 0.00 | 0.00 | 66 | 1023.3 |
| 20260903181601 | 86 | 320 | 2.0 | 6.0 | 0.00 | 0.00 | 0.00 | 60 | 1023.6 |
| 20260903180059 | 86 | 165 | 1.0 | 5.0 | 0.00 | 0.00 | 0.00 | 59 | 1023.6 |
| 20260903174620 | 86 | 123 | 1.0 | 5.0 | 0.00 | 0.00 | 0.00 | 58 | 1023.8 |
| 20260903173110 | 85 | 300 | 0.0 | 5.0 | 0.00 | 0.00 | 0.00 | 64 | 1024.0 |
| 20260903171604 | 85 | 351 | 2.0 | 5.0 | 0.00 | 0.00 | 0.00 | 59 | 1024.2 |
| 20260903170056 | 85 | 309 | 2.0 | 4.0 | 0.00 | 0.00 | 0.00 | 63 | 1024.2 |
| 20260903164608 | 84 | 46 | 2.0 | 8.0 | 0.00 | 0.00 | 0.00 | 64 | 1024.5 |
| 20260903163055 | 84 | 39 | 3.0 | 7.0 | 0.00 | 0.00 | 0.00 | 64 | 1024.3 |
| 20260903161559 | 84 | 120 | 1.0 | 7.0 | 0.00 | 0.00 | 0.00 | 70 | 1024.4 |
| 20260903160111 | 83 | 168 | 0.0 | 6.0 | 0.00 | 0.00 | 0.00 | 71 | 1024.6 |
| 20260903154556 | 81 | 0 | 0.0 | 4.0 | 0.00 | 0.00 | 0.00 | 72 | 1024.7 |
| 20260903153106 | 80 | 223 | 2.0 | 5.0 | 0.00 | 0.00 | 0.00 | 74 | 1024.8 |
| 20260903151601 | 80 | 221 | 1.0 | 4.0 | 0.00 | 0.00 | 0.00 | 72 | 1024.8 |
| 20260903150100 | 79 | 221 | 2.0 | 4.0 | 0.00 | 0.00 | 0.00 | 76 | 1024.7 |
| 20260903144601 | 77 | 246 | 1.0 | 3.0 | 0.00 | 0.00 | 0.00 | 81 | 1024.7 |
| 20260903143105 | 75 | 246 | 1.0 | 4.0 | 0.00 | 0.00 | 0.00 | 85 | 1024.7 |
| 20260903141614 | 74 | 258 | 1.0 | 3.0 | 0.00 | 0.00 | 0.00 | 88 | 1024.7 |
| 20260903134611 | 69 | 0 | 0.0 | 0.0 | 0.00 | 0.00 | 0.00 | 96 | 1024.8 |
| 20260903133111 | 68 | 0 | 0.0 | 0.0 | 0.00 | 0.00 | 0.00 | 98 | 1024.7 |
| 20260903131604 | 67 | 0 | 0.0 | 0.0 | 0.00 | 0.00 | 0.00 | 98 | 1024.9 |
| 20260903130129 | 67 | 0 | 0.0 | 0.0 | 0.00 | 0.00 | 0.00 | 98 | 1025.0 |
| 20260903124606 | 64 | 0 | 0.0 | 0.0 | 0.00 | 0.00 | 0.00 | 98 | 1024.9 |
| 20260903123107 | 64 | 0 | 0.0 | 0.0 | 0.00 | 0.00 | 0.00 | 98 | 1025.0 |
| 20260903121602 | 63 | 0 | 0.0 | 0.0 | 0.00 | 0.00 | 0.00 | 98 | 1025.0 |
| 20260903120106 | 62 | 0 | 0.0 | 0.0 | 0.00 | 0.00 | 0.00 | 97 | 1025.0 |
| 20260903114604 | 62 | 0 | 0.0 | 0.0 | 0.00 | 0.00 | 0.00 | 97 | 1024.7 |
| 20260903113102 | 63 | 0 | 0.0 | 0.0 | 0.00 | 0.00 | 0.00 | 97 | 1024.5 |
| 20260903111605 | 64 | 0 | 0.0 | 0.0 | 0.00 | 0.00 | 0.00 | 98 | 1024.3 |
| 20260903110058 | 63 | 0 | 0.0 | 0.0 | 0.00 | 0.00 | 0.00 | 97 | 1024.1 |
| 20260903104605 | 63 | 0 | 0.0 | 0.0 | 0.00 | 0.00 | 0.00 | 97 | 1024.0 |
| 20260903103106 | 63 | 0 | 0.0 | 0.0 | 0.00 | 0.00 | 0.00 | 97 | 1023.9 |
| 20260903101605 | 63 | 0 | 0.0 | 0.0 | 0.00 | 0.00 | 0.00 | 97 | 1023.8 |
| 20260903100058 | 63 | 0 | 0.0 | 0.0 | 0.00 | 0.00 | 0.00 | 97 | 1023.8 |
| 20260903094612 | 63 | 0 | 0.0 | 0.0 | 0.00 | 0.00 | 0.00 | 97 | 1023.9 |
| 20260903093102 | 63 | 0 | 0.0 | 0.0 | 0.00 | 0.00 | 0.00 | 97 | 1023.7 |
| 20260903091600 | 64 | 0 | 0.0 | 0.0 | 0.00 | 0.00 | 0.00 | 97 | 1023.7 |
| 20260903090105 | 64 | 0 | 0.0 | 0.0 | 0.00 | 0.00 | 0.00 | 97 | 1023.6 |
| 20260903084622 | 65 | 0 | 0.0 | 0.0 | 0.00 | 0.00 | 0.00 | 97 | 1023.5 |
| 20260903083101 | 65 | 0 | 0.0 | 0.0 | 0.00 | 0.00 | 0.00 | 97 | 1023.6 |
| 20260903081620 | 65 | 0 | 0.0 | 0.0 | 0.00 | 0.00 | 0.00 | 97 | 1023.5 |
| 20260903074609 | 65 | 0 | 0.0 | 0.0 | 0.00 | 0.00 | 0.00 | 97 | 1023.8 |
| 20260903073127 | 65 | 0 | 0.0 | 0.0 | 0.00 | 0.00 | 0.00 | 96 | 1023.6 |
| 20260903071620 | 65 | 0 | 0.0 | 0.0 | 0.00 | 0.00 | 0.00 | 96 | 1023.5 |
| 20260903070059 | 66 | 0 | 0.0 | 2.0 | 0.00 | 0.00 | 0.00 | 96 | 1023.5 |
| 20260903064556 | 66 | 0 | 0.0 | 0.0 | 0.00 | 0.00 | 0.00 | 95 | 1023.6 |
| 20260903063057 | 66 | 0 | 0.0 | 0.0 | 0.00 | 0.00 | 0.00 | 95 | 1023.8 |
| 20260903061558 | 66 | 0 | 0.0 | 0.0 | 0.00 | 0.00 | 0.00 | 95 | 1023.9 |
| 20260903060131 | 66 | 0 | 0.0 | 0.0 | 0.00 | 0.00 | 0.00 | 95 | 1023.8 |
| 20260903054555 | 67 | 0 | 1.0 | 2.0 | 0.00 | 0.00 | 0.00 | 94 | 1024.0 |
| 20260903053052 | 67 | 0 | 0.0 | 0.0 | 0.00 | 0.00 | 0.00 | 94 | 1024.3 |
| 20260903051606 | 67 | 0 | 0.0 | 0.0 | 0.00 | 0.00 | 0.00 | 93 | 1024.2 |
| 20260903050059 | 67 | 0 | 0.0 | 1.0 | 0.00 | 0.00 | 0.00 | 93 | 1024.2 |
| 20260903044605 | 68 | 0 | 0.0 | 0.0 | 0.00 | 0.00 | 0.00 | 93 | 1024.2 |
| 20260903043058 | 68 | 0 | 0.0 | 0.0 | 0.00 | 0.00 | 0.00 | 93 | 1024.3 |
| 20260903041600 | 68 | 0 | 0.0 | 0.0 | 0.00 | 0.00 | 0.00 | 92 | 1024.3 |
| 20260903040103 | 68 | 0 | 0.0 | 1.0 | 0.00 | 0.00 | 0.00 | 92 | 1024.4 |
| 20260903034602 | 68 | 0 | 0.0 | 0.0 | 0.00 | 0.00 | 0.00 | 92 | 1024.5 |
| 20260903033058 | 68 | 0 | 0.0 | 0.0 | 0.00 | 0.00 | 0.00 | 92 | 1024.5 |
| 20260903031558 | 69 | 0 | 0.0 | 2.0 | 0.00 | 0.00 | 0.00 | 91 | 1024.7 |
| 20260903030057 | 69 | 0 | 0.0 | 1.0 | 0.00 | 0.00 | 0.00 | 91 | 1024.7 |
| 20260903024600 | 69 | 0 | 0.0 | 1.0 | 0.00 | 0.00 | 0.00 | 90 | 1024.7 |
| 20260903023105 | 69 | 0 | 0.0 | 1.0 | 0.00 | 0.00 | 0.00 | 90 | 1024.9 |
| 20260903021611 | 70 | 0 | 0.0 | 1.0 | 0.00 | 0.00 | 0.00 | 88 | 1024.7 |
| 20260903014607 | 71 | 0 | 0.0 | 0.0 | 0.00 | 0.00 | 0.00 | 87 | 1024.5 |
| 20260903013109 | 71 | 0 | 0.0 | 2.0 | 0.00 | 0.00 | 0.00 | 86 | 1024.3 |
| 20260903011607 | 71 | 74 | 1.0 | 2.0 | 0.00 | 0.00 | 0.00 | 84 | 1024.1 |
| 20260903010056 | 72 | 0 | 0.0 | 0.0 | 0.00 | 0.00 | 0.00 | 84 | 1023.9 |
| 20260903004600 | 72 | 0 | 0.0 | 0.0 | 0.00 | 0.00 | 0.00 | 84 | 1023.7 |
| 20260903003059 | 73 | 0 | 0.0 | 2.0 | 0.00 | 0.00 | 0.00 | 83 | 1023.5 |
| 20260903001605 | 74 | 74 | 0.0 | 2.0 | 0.00 | 0.00 | 0.00 | 82 | 1023.4 |
| 20260903000058 | 75 | 74 | 0.0 | 0.0 | 0.00 | 0.00 | 0.00 | 82 | 1023.3 |
| 20260902234613 | 76 | 0 | 0.0 | 2.0 | 0.00 | 0.00 | 0.00 | 80 | 1023.2 |
| 20260902233057 | 78 | 74 | 1.0 | 2.0 | 0.00 | 0.00 | 0.00 | 78 | 1023.4 |
| 20260902231612 | 80 | 0 | 0.0 | 2.0 | 0.00 | 0.00 | 0.00 | 73 | 1023.2 |
| 20260902230108 | 82 | 0 | 0.0 | 3.0 | 0.00 | 0.00 | 0.00 | 70 | 1023.2 |
| 20260902224555 | 83 | 0 | 0.0 | 4.0 | 0.00 | 0.00 | 0.00 | 68 | 1023.4 |
| 20260902223100 | 84 | 331 | 0.0 | 5.0 | 0.00 | 0.00 | 0.00 | 67 | 1023.4 |
| 20260902221559 | 85 | 0 | 1.0 | 3.0 | 0.00 | 0.00 | 0.00 | 61 | 1023.4 |
| 20260902214615 | 87 | 53 | 0.0 | 4.0 | 0.00 | 0.00 | 0.00 | 57 | 1023.6 |
| 20260902213100 | 88 | 19 | 0.0 | 3.0 | 0.00 | 0.00 | 0.00 | 59 | 1023.5 |
| 20260902211605 | 87 | 123 | 0.0 | 2.0 | 0.00 | 0.00 | 0.00 | 62 | 1023.6 |
| 20260902204603 | 86 | 23 | 1.0 | 3.0 | 0.00 | 0.00 | 0.00 | 59 | 1023.6 |
| 20260902203058 | 87 | 27 | 0.0 | 4.0 | 0.00 | 0.00 | 0.00 | 63 | 1023.5 |
| 20260902201600 | 87 | 0 | 0.0 | 3.0 | 0.00 | 0.00 | 0.00 | 64 | 1023.6 |
| 20260902200055 | 86 | 270 | 1.0 | 6.0 | 0.00 | 0.00 | 0.00 | 61 | 1023.7 |
| 20260902194554 | 84 | 138 | 0.0 | 3.0 | 0.00 | 0.00 | 0.00 | 68 | 1024.0 |